Location: Grandview
(34.8900°N, 117.1058°W)
Time: 04:35:26
(UTC-07:00)

N. Korean satellite - Pass Details

Date: 14 October 2017
Orbit: 459 x 517 km, 97.2° (Epoch: 16 October)

Event Time Altitude Azimuth Distance (km) Brightness Sun altitude
Rises 19:29:53 0° 191° (S) 2,553 10.4 -16.3°
Reaches altitude 10° 19:32:10 10° 203° (SSW) 1,665 9.5 -16.7°
Maximum altitude 19:35:16 27° 263° (W) 955 8.9 -17.4°
Drops below altitude 10° 19:38:19 10° 323° (NW) 1,648 9.8 -18.0°
Sets 19:40:35 0° 336° (NNW) 2,521 10.6 -18.5°
